{"data":{"norad_id":46469,"epoch":"2026-05-25T04:13:30.295776Z","epoch_age_seconds":59500,"freshness":"FRESH","line1":"1 46469U 20066A   26145.17604509  .00000002  00000+0  75244-4 0  9990","line2":"2 46469  65.9976 272.5757 0009747 239.1543 120.8567 13.83372747286316","mean_motion":13.83372747,"eccentricity":0.0009747,"inclination_deg":65.9976,"raan_deg":272.5757,"arg_perigee_deg":239.1543,"mean_anomaly_deg":120.8567,"bstar":7.5244e-5,"rev_number":28631,"period_min":104.09341973252,"perigee_km":944.80370540949,"apogee_km":959.09297377049,"semimajor_km":7330.08533959,"source":"CELESTRAK","updated_at":"2026-05-25T13:37:56.322518Z"}}